This is the latest recevied weather packets stored in our database for station/object BARLOW-WX. If no packets are shown the sender has not sent any weather packets the latest 10 day(s).
| Time | Temp. | Humidity | Pressure | Rain* | Wind** | Luminosity | Snow |
|---|---|---|---|---|---|---|---|
| 1777222898 | 13.89° C | 67% | 991.9 hPa | 0 mm | - | - | - |
| 1777221977 | 13.33° C | 80% | 991.1 hPa | 0 mm | - | - | - |
| 1777221094 | 12.22° C | 80% | 991.8 hPa | 0 mm | - | - | - |
| 1777220180 | 11.67° C | 80% | 991.8 hPa | 0 mm | - | - | - |
| 1777219307 | 11.67° C | 80% | 991.8 hPa | 0 mm | - | - | - |
| 1777218379 | 11.11° C | 86% | 991.8 hPa | 0 mm | - | - | - |
| 1777217494 | 11.11° C | 83% | 991.8 hPa | 0 mm | - | - | - |
| 1777216579 | 11.11° C | 83% | 991.8 hPa | 0 mm | - | - | - |
| 1777215703 | 10.56° C | 83% | 991.8 hPa | 0 mm | - | - | - |
| 1777214778 | 10° C | 88% | 990.1 hPa | 0 mm | - | - | - |
| 1777213890 | 9.44° C | 89% | 991.6 hPa | 0 mm | - | - | - |
| 1777212979 | 9.44° C | 89% | 991.6 hPa | 0 mm | - | - | - |
| 1777212114 | 8.89° C | 89% | 991.6 hPa | 0 mm | - | - | - |
| 1777211179 | 8.89° C | 87% | 990.7 hPa | 0 mm | - | - | - |
| 1777210291 | 8.89° C | 87% | 990.7 hPa | 0 mm | - | - | - |
| 1777209378 | 8.89° C | 87% | 990.7 hPa | 0 mm | - | - | - |
| 1777208502 | 8.33° C | 87% | 990.7 hPa | 0 mm | - | - | - |
| 1777207578 | 8.33° C | 89% | 990.2 hPa | 0 mm | - | - | - |
| 1777206694 | 8.33° C | 88% | 991.2 hPa | 0 mm | - | - | - |
| 1777205778 | 7.78° C | 88% | 991.2 hPa | 0 mm | - | - | - |
| 1777204909 | 7.78° C | 88% | 991.2 hPa | 0 mm | - | - | - |
| 1777203977 | 7.78° C | 89% | 991.1 hPa | 0 mm | - | - | - |
| 1777203094 | 7.22° C | 90% | 991.3 hPa | 0 mm | - | - | - |
| 1777202177 | 7.22° C | 90% | 991.4 hPa | 0 mm | - | - | - |
| 1777201301 | 7.22° C | 90% | 991.4 hPa | 0 mm | - | - | - |
* Rain latest hour (hover to see other rain measurements)
** Current wind speed in m/s (hover to see current wind gust speed)